Weather History for Logansport, IN

Change the Weather History Date:

Sunday, January 27, 2013

  Actual Average Record
Temperature  
Mean Temperature 26 °F -  
Max Temperature 33 °F 29 °F 33 °F (2013)
Min Temperature 19 °F 14 °F -14 °F (2014)
Degree Days  
Heating Degree Days 39    
Moisture  
Dew Point 23 °F    
Average Humidity 84    
Maximum Humidity 100    
Minimum Humidity 69    
Precipitation  
Precipitation 0.12 in - - ()
Sea Level Pressure  
Sea Level Pressure 30.28 in    
Wind  
Wind Speed 8 mph (SE)    
Max Wind Speed 14 mph    
Max Gust Speed -    
Visibility 8 miles    
Events Snow    
Averages and records for this station are not official NWS values.
T = Trace of Precipitation, MM = Missing Value Source: NWS Daily Summary

Daily Weather History Graph

Daily Weather History Graph

Search for Another Location

Airport:

Trip Planner

Search our weather history database for the weather conditions in past years. The results will help you decide how hot, cold, wet, or windy it might be!

Date:

Astronomy

Jan. 27, 2013 Rise Set
Actual Time 7:59 AM EST 5:57 PM EST
Civil Twilight 7:30 AM EST 6:26 PM EST
Nautical Twilight 6:57 AM EST 6:59 PM EST
Astronomical Twilight 6:25 AM EST 7:32 PM EST
Moon 6:51 PM EST (1/27) 7:51 AM EST (1/27)
Length of Visible Light 10h 56m
Length of Day
9h 57m
Full, 100% of the Moon is Illuminated
Jan 27
Full
Feb 3
Last Quarter
Feb 10
New
Feb 17
First Quarter
Feb 25
Full

Hourly Weather History & Observations

Time (EST) Temp. Windchill Dew Point Humidity Pressure Visibility Wind Dir Wind Speed Gust Speed Precip Events Conditions
12:15 AM 21.2 °F 16.4 °F 17.6 °F 86% 30.42 in 10.0 mi ESE 3.5 mph - N/A   Scattered Clouds
12:35 AM 21.2 °F 11.7 °F 15.8 °F 80% 30.41 in 10.0 mi ESE 8.1 mph - N/A   Clear
12:55 AM 21.2 °F 13.6 °F 17.6 °F 86% 30.40 in 10.0 mi ESE 5.8 mph - N/A   Clear
1:15 AM 21.2 °F 14.9 °F 17.6 °F 86% 30.41 in 10.0 mi ESE 4.6 mph - N/A   Clear
1:35 AM 23.0 °F 15.8 °F 17.6 °F 80% 30.40 in 10.0 mi SE 5.8 mph - N/A   Clear
1:55 AM 23.0 °F 17.0 °F 17.6 °F 80% 30.40 in 10.0 mi SSE 4.6 mph - N/A   Clear
2:15 AM 23.0 °F 13.9 °F 17.6 °F 80% 30.40 in 10.0 mi SE 8.1 mph - N/A   Clear
2:35 AM 23.0 °F 13.1 °F 17.6 °F 80% 30.39 in 10.0 mi SE 9.2 mph - N/A   Clear
2:55 AM 23.0 °F 13.9 °F 17.6 °F 80% 30.39 in 10.0 mi SE 8.1 mph - N/A   Clear
3:15 AM 23.0 °F 14.7 °F 17.6 °F 80% 30.40 in 10.0 mi ESE 6.9 mph - N/A   Scattered Clouds
3:35 AM 21.2 °F 13.6 °F 17.6 °F 86% 30.41 in 10.0 mi ESE 5.8 mph - N/A   Scattered Clouds
3:55 AM 21.2 °F 12.6 °F 15.8 °F 80% 30.41 in 10.0 mi SE 6.9 mph - N/A   Clear
4:15 AM 19.4 °F 10.4 °F 15.8 °F 86% 30.40 in 10.0 mi ESE 6.9 mph - N/A   Clear
4:35 AM 19.4 °F 10.4 °F 14.0 °F 80% 30.40 in 10.0 mi SE 6.9 mph - N/A   Clear
4:55 AM 19.4 °F 9.5 °F 15.8 °F 86% 30.39 in 10.0 mi SE 8.1 mph - N/A   Clear
5:15 AM 19.4 °F 8.6 °F 15.8 °F 86% 30.39 in 10.0 mi SE 9.2 mph - N/A   Clear
5:35 AM 19.4 °F 8.6 °F 15.8 °F 86% 30.38 in 10.0 mi SE 9.2 mph - N/A   Clear
5:55 AM 19.4 °F 10.4 °F 14.0 °F 80% 30.38 in 10.0 mi ESE 6.9 mph - N/A   Clear
6:15 AM 19.4 °F 10.4 °F 14.0 °F 80% 30.38 in 10.0 mi East 6.9 mph - N/A   Clear
6:35 AM 19.4 °F 10.4 °F 14.0 °F 80% 30.39 in 10.0 mi ESE 6.9 mph - N/A   Clear
6:55 AM 19.4 °F 10.4 °F 15.8 °F 86% 30.39 in 10.0 mi ESE 6.9 mph - N/A   Clear
7:15 AM 19.4 °F 9.5 °F 15.8 °F 86% 30.38 in 10.0 mi ESE 8.1 mph - N/A   Clear
7:35 AM 19.4 °F 10.4 °F 15.8 °F 86% 30.39 in 10.0 mi SE 6.9 mph - N/A   Clear
7:55 AM 21.2 °F 11.7 °F 17.6 °F 86% 30.39 in 7.0 mi SE 8.1 mph - N/A   Clear
8:15 AM 21.2 °F 9.5 °F 17.6 °F 86% 30.39 in 7.0 mi SE 11.5 mph - N/A   Clear
8:55 AM 23.0 °F 11.7 °F 17.6 °F 80% 30.37 in 7.0 mi SE 11.5 mph - N/A   Clear
9:15 AM 23.0 °F 12.4 °F 19.4 °F 86% 30.37 in 7.0 mi SE 10.4 mph - N/A   Clear
9:35 AM 24.8 °F 14.6 °F 19.4 °F 80% 30.37 in 7.0 mi SE 10.4 mph - N/A   Clear
9:55 AM 24.8 °F 13.4 °F 19.4 °F 80% 30.38 in 10.0 mi SE 12.7 mph - N/A   Clear
10:15 AM 26.6 °F 16.8 °F 19.4 °F 74% 30.38 in 10.0 mi SE 10.4 mph - N/A   Mostly Cloudy
10:35 AM 26.6 °F 15.7 °F 19.4 °F 74% 30.38 in 10.0 mi SE 12.7 mph - N/A   Scattered Clouds
10:55 AM 28.4 °F 19.7 °F 21.2 °F 74% 30.39 in 10.0 mi SE 9.2 mph - N/A   Scattered Clouds
11:15 AM 28.4 °F 19.7 °F 21.2 °F 74% 30.38 in 10.0 mi SE 9.2 mph - N/A   Mostly Cloudy
11:35 AM 28.4 °F 19.1 °F 21.2 °F 74% 30.38 in 10.0 mi SE 10.4 mph - N/A   Overcast
11:55 AM 30.2 °F 21.3 °F 21.2 °F 69% 30.36 in 10.0 mi ESE 10.4 mph - N/A   Mostly Cloudy
12:15 PM 30.2 °F 21.9 °F 21.2 °F 69% 30.36 in 10.0 mi SE 9.2 mph - N/A   Scattered Clouds
12:35 PM 30.2 °F 21.3 °F 23.0 °F 75% 30.35 in 10.0 mi ESE 10.4 mph - N/A   Mostly Cloudy
12:55 PM 30.2 °F 21.9 °F 23.0 °F 75% 30.33 in 10.0 mi SE 9.2 mph - N/A   Overcast
1:15 PM 32.0 °F 23.0 °F 23.0 °F 69% 30.30 in 10.0 mi ESE 11.5 mph - N/A   Scattered Clouds
1:35 PM 32.0 °F 23.6 °F 23.0 °F 69% 30.29 in 10.0 mi ESE 10.4 mph - N/A   Clear
1:55 PM 32.0 °F 22.5 °F 23.0 °F 69% 30.27 in 10.0 mi SE 12.7 mph - N/A   Mostly Cloudy
2:15 PM 32.0 °F 22.5 °F 24.8 °F 75% 30.25 in 10.0 mi SE 12.7 mph - N/A   Mostly Cloudy
2:35 PM 32.0 °F 22.5 °F 24.8 °F 75% 30.24 in 10.0 mi ESE 12.7 mph - N/A   Overcast
2:55 PM 32.0 °F 23.6 °F 24.8 °F 75% 30.22 in 10.0 mi ESE 10.4 mph - N/A   Overcast
3:15 PM 32.0 °F 22.5 °F 24.8 °F 75% 30.21 in 10.0 mi SE 12.7 mph - N/A   Overcast
3:35 PM 32.0 °F 22.1 °F 26.6 °F 80% 30.20 in 10.0 mi ESE 13.8 mph - N/A   Overcast
3:55 PM 32.0 °F 24.2 °F 26.6 °F 80% 30.21 in 10.0 mi ESE 9.2 mph - N/A   Overcast
4:15 PM 32.0 °F 23.6 °F 26.6 °F 80% 30.20 in 7.0 mi ESE 10.4 mph - N/A Snow Light Snow
4:35 PM 32.0 °F 22.1 °F 26.6 °F 80% 30.18 in 7.0 mi ESE 13.8 mph - N/A   Overcast
4:55 PM 32.0 °F 22.5 °F 28.4 °F 87% 30.19 in 7.0 mi ESE 12.7 mph - N/A   Overcast
5:15 PM 32.0 °F 23.6 °F 28.4 °F 87% 30.18 in 5.0 mi ESE 10.4 mph - 0.01 in   Overcast
5:35 PM 32.0 °F 24.2 °F 28.4 °F 87% 30.20 in 2.0 mi ESE 9.2 mph - 0.04 in Snow Light Snow
5:55 PM 32.0 °F 23.6 °F 30.2 °F 93% 30.20 in 7.0 mi ESE 10.4 mph - 0.04 in   Overcast
6:15 PM 32.0 °F 24.8 °F 30.2 °F 93% 30.21 in 4.0 mi SE 8.1 mph - 0.03 in Snow Light Snow
6:35 PM 32.0 °F 23.6 °F 30.2 °F 93% 30.20 in 3.0 mi ESE 10.4 mph - 0.04 in Snow Light Snow
6:55 PM 32.0 °F 23.6 °F 30.2 °F 93% 30.19 in 4.0 mi SE 10.4 mph - 0.05 in Snow Light Snow
7:15 PM 32.0 °F 23.6 °F 30.2 °F 93% 30.18 in 5.0 mi ESE 10.4 mph - N/A   Overcast
7:35 PM 32.0 °F 23.0 °F 30.2 °F 93% 30.16 in 5.0 mi SE 11.5 mph - 0.02 in Snow Light Snow
7:55 PM 32.0 °F 23.6 °F 30.2 °F 93% 30.15 in 4.0 mi ESE 10.4 mph - 0.03 in Snow Light Snow
8:15 PM 32.0 °F 24.2 °F 30.2 °F 93% 30.13 in 5.0 mi SE 9.2 mph - N/A   Overcast
8:35 PM 32.0 °F 24.2 °F 30.2 °F 93% 30.12 in 7.0 mi SE 9.2 mph - N/A   Overcast
8:55 PM 32.0 °F 24.2 °F 32.0 °F 100% 30.11 in 7.0 mi SE 9.2 mph - N/A   Overcast
9:15 PM 32.0 °F 24.2 °F 32.0 °F 100% 30.10 in 7.0 mi SE 9.2 mph - N/A   Overcast
9:35 PM 32.0 °F 23.6 °F 32.0 °F 100% 30.09 in 7.0 mi SE 10.4 mph - N/A   Overcast
9:55 PM 32.0 °F 23.6 °F 32.0 °F 100% 30.07 in 7.0 mi SE 10.4 mph - N/A   Overcast
10:15 PM 32.0 °F 23.6 °F 32.0 °F 100% 30.06 in 7.0 mi SE 10.4 mph - N/A   Overcast
10:35 PM 32.0 °F 24.2 °F 32.0 °F 100% 30.06 in 5.0 mi SSE 9.2 mph - N/A   Overcast
10:55 PM 33.8 °F 25.3 °F 32.0 °F 93% 30.05 in 5.0 mi SSE 11.5 mph - N/A Snow Light Snow
11:15 PM 33.8 °F 25.8 °F 32.0 °F 93% 30.05 in 5.0 mi SE 10.4 mph - N/A   Overcast
11:35 PM 33.8 °F 26.4 °F 32.0 °F 93% 30.05 in 5.0 mi SSE 9.2 mph - N/A   Overcast
11:55 PM 33.8 °F 27.7 °F 32.0 °F 93% 30.06 in 4.0 mi SSE 6.9 mph - N/A   Overcast